[[{"header":{"parameterUnit":"m.s-1","parameterCategory":2,"la1":30.2991,"la2":30.254,"lo1":-89.0895,"lo2":-89.0444,"dy":0.0017,"dx":0.0017,"nx":28,"ny":28,"refTime":"2024-08-16T21:00:00:Z","depth":"0","parameterNumber":2,"parameterNumberName":"U-component_of_CURRENTS"},"data":[0,0,0,0,0,0,0,0,0,0,0,0,0,0,0,0,0,0,0,0,0,0,0,0,0,0,0,0,0,0,0,0,0,0,0,0,0,0,0,0,0,0,0,0,0,0,0,0,0,0,0,0,0,0,0,0,0,0,0.4131,0.4133,0,0.4234,0.4234,0.4235,0.4213,0.4212,0.4211,0.421,0.4228,0.4229,0.4231,0,0,0,0,0,0,0,0,0,0,0,0,0,0.393,0.3933,0.4131,0.4133,0.4135,0.4234,0.4234,0.4235,0.4213,0.4212,0.4211,0.421,0.4227,0.4229,0.4231,0,0,0,0,0,0,0,0,0,0,0,0,0,0.4015,0.3934,0.413,0.4143,0.4146,0.4234,0.4234,0.4235,0.4214,0.4212,0.421,0.4209,0.4227,0.4229,0.4231,0.4275,0,0,0.4238,0.4239,0,0,0,0,0,0,0,0,0.401,0.4021,0.4139,0.4143,0.4146,0.4217,0.4171,0.4247,0.4214,0.4178,0.421,0.4208,0.4224,0.4226,0.4237,0.4276,0.4277,0.4238,0.4239,0.424,0.4241,0,0,0,0,0,0,0,0.4004,0.4016,0.4162,0.4142,0.4146,0.415,0.4159,0.4185,0.4199,0.4181,0.4182,0.4209,0.4224,0.4235,0.4237,0.4277,0.4238,0.424,0.4241,0.4242,0.4289,0.4289,0,0,0,0,0,0,0.4012,0.4011,0.4159,0.4166,0.4084,0.4155,0.4165,0.4188,0.4201,0.4205,0.421,0.4208,0.4232,0.4234,0.4237,0.4302,0.424,0.4242,0.4243,0.4289,0.4289,0.4289,0,0,0,0,0,0,0.4007,0.4024,0.4155,0.4098,0.4116,0.4161,0.4187,0.4191,0.4202,0.4226,0.4226,0.4218,0.4231,0.4234,0.426,0.4302,0.4243,0.4245,0.429,0.4289,0.4289,0.4425,0,0,0,0,0,0,0.4001,0.4021,0.404,0.4099,0.412,0.4215,0.419,0.4195,0.4226,0.4223,0.4233,0.4233,0.423,0.4257,0.4262,0.4304,0.4247,0.429,0.4289,0.4289,0.442,0.4429,0.4437,0,0,0,0,0,0.3993,0.4029,0.404,0.4059,0.4145,0.4218,0.4228,0.4248,0.4228,0.4246,0.4243,0.4232,0.4258,0.426,0.4266,0.4309,0.429,0.429,0.4289,0.4416,0.4428,0.4437,0,0,0,0,0,0,0.3948,0.4033,0.4046,0.4104,0.4162,0.4218,0.4245,0.4254,0.4268,0.4259,0.4253,0.4255,0.429,0.4269,0.4269,0.4312,0.4265,0.4266,0.4359,0.4369,0.4377,0.4401,0.4248,0,0,0,0,0,0.3952,0.4002,0.4076,0.4124,0.4152,0.4196,0.4227,0.4246,0.4274,0.4277,0.4283,0.4279,0.4297,0.4307,0.4313,0.4354,0.4409,0.4371,0.438,0.4388,0.4405,0.4544,0.4569,0.4289,0.4289,0.4289,0,0,0.3954,0.4005,0.4035,0.4119,0.4158,0.421,0.4207,0.4266,0.4302,0.428,0.4311,0.4318,0.4311,0.4353,0.4365,0.4343,0.4497,0.4388,0.4396,0.4408,0.4547,0.4575,0.4601,0.4289,0.4289,0.4289,0,0,0.3982,0.4021,0.4071,0.4117,0.4196,0.423,0.4247,0.4307,0.4321,0.4368,0.4356,0.4396,0.4402,0.4431,0.4439,0.4495,0.4539,0.4471,0.4547,0.4682,0.4709,0.4733,0.4864,0.4899,0.4476,0.4476,0.4476,0,0.3983,0.4052,0.4096,0.4148,0.4199,0.4236,0.4295,0.4322,0.4379,0.4422,0.4383,0.4456,0.4449,0.4537,0.4542,0.4525,0.4601,0.4523,0.4704,0.4728,0.475,0.4879,0.4915,0.4483,0.4482,0.4481,0.4481,0,0.4052,0.4098,0.413,0.4208,0.4261,0.4324,0.4378,0.4425,0.4444,0.4486,0.4572,0.4579,0.4636,0.4625,0.46,0.4741,0.4747,0.471,0.47,0.4789,0.4916,0.4952,0.4492,0.449,0.4488,0.4486,0,0,0.4085,0.4166,0.4176,0.4228,0.4303,0.4371,0.4429,0.4533,0.4624,0.464,0.4758,0.4771,0.4799,0.4807,0.48,0.4888,0.5109,0.4863,0.4867,0.5032,0.5431,0.5346,0.5377,0.512,0.5126,0.5131,0.5468,0,0.4132,0.4236,0.4261,0.4363,0.4431,0.448,0.4555,0.4645,0.4716,0.4832,0.4857,0.4953,0.486,0.4923,0.4997,0.5084,0.5204,0.5021,0.5284,0.5292,0.524,0.5416,0.5154,0.5424,0.5503,0.5509,0.5513,0,0.4195,0.4267,0.4369,0.4487,0.4524,0.4589,0.4765,0.4832,0.4975,0.5034,0.5125,0.5157,0.528,0.5186,0.5411,0.5305,0.5383,0.5434,0.5448,0.5346,0.5274,0.5337,0.5486,0.5288,0.5568,0.5564,0.556,0,0.4242,0.4342,0.4435,0.4472,0.4606,0.4681,0.476,0.4912,0.5004,0.5184,0.5288,0.5415,0.5514,0.5619,0.5682,0.5594,0.5935,0.5838,0.5845,0.5841,0.5655,0.5622,0.5671,0.6039,0.6038,0.6038,0.6037,0,0.4298,0.4381,0.4471,0.4539,0.4696,0.4751,0.4929,0.5038,0.5184,0.531,0.54,0.5524,0.563,0.5795,0.5823,0.5961,0.6073,0.5918,0.5944,0.5689,0.5657,0.5498,0.542,0.605,0.6047,0.6045,0.6043,0,0.4368,0.4394,0.4542,0.4685,0.4726,0.4859,0.5007,0.5108,0.5266,0.5437,0.5499,0.5686,0.5897,0.6008,0.6224,0.6165,0.6119,0.631,0.5997,0.5976,0.5716,0.5654,0.5607,0.5453,0.6388,0.6388,0.6388,0,0.4421,0.4499,0.467,0.4714,0.4783,0.4932,0.4998,0.5147,0.5232,0.5504,0.5571,0.5848,0.598,0.628,0.6283,0.6413,0.618,0.6213,0.5969,0.5722,0.5676,0.5447,0.5303,0.5801,0.5796,0.5793,0.579,0,0.4564,0.4624,0.472,0.4814,0.4883,0.4976,0.5079,0.5153,0.53,0.5445,0.5619,0.5763,0.6047,0.6038,0.6215,0.6227,0.5877,0.6137,0.5977,0.5316,0.4982,0.4834,0.5565,0.5756,0.5759,0.5762,0.5763,0.5765,0.4668,0.4746,0.4814,0.4892,0.4941,0.4959,0.4983,0.5051,0.516,0.5278,0.5514,0.562,0.5741,0.5932,0.5918,0.5686,0.5702,0.5457,0.5447,0.5271,0.4961,0.5617,0.5753,0.5757,0.5759,0.5762,0.5764,0,0.4739,0.4768,0.4851,0.4883,0.4873,0.4923,0.4958,0.4905,0.4923,0.5089,0.5212,0.5255,0.527,0.531,0.5199,0.5002,0.476,0.4849,0.4448,0.4374,0.5055,0.4859,0.4688,0.4688,0.4689,0.4689,0.4689,0.4689,0.477,0.4803,0.4811,0.4775,0.4768,0.4682,0.4662,0.4598,0.4648,0.4579,0.4552,0.4639,0.4775,0.4772,0.4544,0.4438,0.4096,0.3922,0.3953,0.439,0.4442,0.4491,0.4285,0.3997,0.3996,0.3027,0.302,0.3014]},{"header":{"parameterUnit":"m.s-1","parameterCategory":2,"la1":30.2991,"la2":30.254,"lo1":-89.0895,"lo2":-89.0444,"dy":0.0017,"dx":0.0017,"nx":28,"ny":28,"refTime":"2024-08-16T21:00:00:Z","depth":"0","parameterNumber":3,"parameterNumberName":"V-component_of_CURRENTS"},"data":[0,0,0,0,0,0,0,0,0,0,0,0,0,0,0,0,0,0,0,0,0,0,0,0,0,0,0,0,0,0,0,0,0,0,0,0,0,0,0,0,0,0,0,0,0,0,0,0,0,0,0,0,0,0,0,0,0,0,0.0037,0.0036,0,-0.0047,-0.0048,-0.0049,-0.0105,-0.0105,-0.0106,-0.0106,-0.0271,-0.0275,-0.0279,0,0,0,0,0,0,0,0,0,0,0,0,0,0.0084,0.0084,0.0037,0.0036,0.0035,-0.0046,-0.0048,-0.0049,-0.0105,-0.0105,-0.0106,-0.0106,-0.0269,-0.0274,-0.0279,0,0,0,0,0,0,0,0,0,0,0,0,0,0.0037,0.0083,0.0037,-0.0002,-0.0006,-0.0046,-0.0048,-0.0049,-0.0105,-0.0105,-0.0106,-0.0106,-0.0268,-0.0274,-0.028,-0.031,0,0,-0.0299,-0.0302,0,0,0,0,0,0,0,0,0.004,0.0035,0.0005,0.0001,-0.0004,-0.0065,-0.0092,-0.014,-0.0105,-0.0069,-0.0106,-0.0107,-0.0208,-0.0219,-0.0235,-0.0317,-0.0325,-0.0299,-0.0303,-0.0306,-0.0308,0,0,0,0,0,0,0,0.0043,0.0038,0.0002,0.0004,-0.0001,-0.0037,-0.0043,-0.0101,-0.0138,-0.0072,-0.0076,-0.0083,-0.0212,-0.0229,-0.0239,-0.0327,-0.0299,-0.0305,-0.0309,-0.0311,-0.0429,-0.0428,0,0,0,0,0,0,0.006,0.0042,0.0005,0.0,0.0019,-0.0037,-0.0045,-0.0046,-0.0136,-0.0149,-0.0083,-0.0085,-0.0218,-0.0232,-0.0246,-0.028,-0.0306,-0.0312,-0.0315,-0.0429,-0.0429,-0.0428,0,0,0,0,0,0,0.0062,0.0058,0.0009,0.002,0.0011,-0.0037,-0.0038,-0.0047,-0.0062,-0.0142,-0.0157,-0.0087,-0.0219,-0.0237,-0.029,-0.0287,-0.0314,-0.032,-0.043,-0.0429,-0.0428,-0.0354,0,0,0,0,0,0,0.0063,0.0059,0.006,0.0021,0.0011,-0.0006,-0.0038,-0.0049,-0.0065,-0.007,-0.0152,-0.0167,-0.0221,-0.028,-0.0296,-0.0296,-0.0325,-0.0431,-0.043,-0.0429,-0.0357,-0.0351,-0.0345,0,0,0,0,0,0.0066,0.0077,0.0061,0.0056,0.0016,-0.0005,-0.0013,-0.005,-0.0065,-0.0066,-0.0121,-0.0165,-0.0284,-0.0285,-0.0304,-0.0306,-0.0431,-0.043,-0.0429,-0.036,-0.0352,-0.0345,0,0,0,0,0,0,0.0097,0.0071,0.0053,0.0054,0.0029,-0.0014,-0.0018,-0.0042,-0.0085,-0.009,-0.0166,-0.0185,-0.023,-0.0274,-0.0273,-0.0334,-0.0362,-0.0364,-0.0303,-0.0296,-0.029,-0.0223,-0.033,0,0,0,0,0,0.0106,0.0105,0.0073,0.0072,0.0067,0.0026,0.0012,-0.001,-0.0051,-0.007,-0.0127,-0.0185,-0.0239,-0.0271,-0.0324,-0.0362,-0.0341,-0.0372,-0.0366,-0.0361,-0.0317,-0.0282,-0.0267,-0.0424,-0.0424,-0.0424,0,0,0.0114,0.0102,0.0098,0.0079,0.0057,0.0056,0.0017,0.0007,0.0002,-0.0083,-0.011,-0.017,-0.0244,-0.0285,-0.0308,-0.0322,-0.0306,-0.0359,-0.0354,-0.0312,-0.0278,-0.0263,-0.0249,-0.0423,-0.0423,-0.0423,0,0,0.0144,0.0127,0.014,0.0127,0.0107,0.0083,0.0086,0.0049,0.0029,-0.0005,-0.0065,-0.0107,-0.0198,-0.0239,-0.0275,-0.0264,-0.0275,-0.0294,-0.0213,-0.0181,-0.0166,-0.0154,-0.0103,-0.0086,-0.0291,-0.0291,-0.0291,0,0.0156,0.0172,0.0139,0.0153,0.0154,0.0102,0.0124,0.0091,0.004,0.0045,-0.0001,-0.008,-0.0167,-0.0185,-0.0197,-0.0249,-0.0219,-0.024,-0.0169,-0.0156,-0.0144,-0.0095,-0.0078,-0.0287,-0.0287,-0.0288,-0.0288,0,0.0199,0.0209,0.022,0.022,0.0213,0.0224,0.0187,0.018,0.0148,0.0125,0.0109,0.0011,-0.0016,-0.0075,-0.0147,-0.0112,-0.0113,-0.0164,-0.0179,-0.0123,-0.0077,-0.0059,-0.0282,-0.0283,-0.0284,-0.0285,0,0,0.0243,0.025,0.0256,0.0288,0.0258,0.0276,0.0265,0.0271,0.0318,0.0239,0.0304,0.0166,0.0148,0.011,0.0025,0.0023,0.0091,-0.0031,-0.0032,0.0036,0.0197,0.0141,0.0154,0.0058,0.0061,0.0063,0.0198,0,0.0292,0.035,0.0329,0.0388,0.0423,0.0387,0.0405,0.04,0.0386,0.0431,0.0348,0.0364,0.0207,0.022,0.0187,0.0136,0.014,0.0062,0.012,0.0123,0.0079,0.0173,0.0137,0.0249,0.0214,0.0217,0.0219,0,0.0356,0.0389,0.046,0.0522,0.0539,0.0566,0.0636,0.0645,0.0664,0.0665,0.066,0.0613,0.0598,0.0464,0.0427,0.0393,0.031,0.025,0.0253,0.0198,0.01,0.0185,0.0281,-0.0009,0.0245,0.0243,0.0241,0,0.0448,0.0496,0.057,0.0583,0.0626,0.0676,0.0707,0.0734,0.0796,0.0849,0.0935,0.0876,0.0924,0.0804,0.0649,0.0565,0.0634,0.0502,0.0378,0.0374,0.0356,0.0344,0.0197,0.0494,0.0494,0.0494,0.0493,0,0.0529,0.0597,0.0635,0.0683,0.0818,0.0801,0.0946,0.0971,0.1047,0.1182,0.1091,0.1217,0.1017,0.1006,0.0798,0.068,0.0759,0.0445,0.0419,0.0377,0.0366,0.0119,-0.0028,0.0499,0.0497,0.0496,0.0496,0,0.0639,0.0643,0.0759,0.0833,0.0872,0.0984,0.1113,0.1209,0.1276,0.1463,0.1507,0.1538,0.1542,0.1329,0.1192,0.0926,0.0628,0.0699,0.067,0.0635,0.0176,0.0036,-0.0041,-0.015,0.0589,0.0589,0.0589,0,0.0704,0.0766,0.0898,0.0976,0.1024,0.1164,0.1258,0.1329,0.1439,0.1673,0.1789,0.1874,0.1965,0.1754,0.1331,0.102,0.0715,0.0709,0.0496,0.0192,0.0019,-0.0083,-0.0177,0.0513,0.0512,0.0511,0.0511,0,0.0844,0.0893,0.0986,0.1131,0.1251,0.1395,0.1538,0.1667,0.1787,0.1983,0.2252,0.2372,0.2201,0.1913,0.1449,0.1153,0.0496,0.0679,0.0385,-0.0018,-0.0149,-0.028,0.0386,0.0504,0.0505,0.0505,0.0506,0.0506,0.0962,0.1055,0.1154,0.1295,0.1431,0.1595,0.1734,0.1905,0.2149,0.2471,0.2574,0.2831,0.2331,0.1724,0.1323,0.0449,0.0482,0.012,-0.0003,-0.0062,-0.0242,0.0412,0.0463,0.0464,0.0464,0.0464,0.0464,0,0.1074,0.115,0.1291,0.1452,0.1596,0.1647,0.1886,0.2043,0.2349,0.2718,0.2984,0.2882,0.2259,0.156,0.0421,-0.0152,-0.0365,-0.0475,-0.0653,-0.0703,-0.0098,-0.0187,-0.03,-0.0299,-0.0299,-0.0299,-0.0299,-0.0298,0.1136,0.1262,0.1311,0.154,0.1656,0.1863,0.2005,0.2286,0.2574,0.302,0.3216,0.3326,0.2692,0.0778,-0.0545,-0.0845,-0.1206,-0.1263,-0.1422,-0.1085,-0.1041,-0.0999,-0.1122,-0.1429,-0.143,-0.1992,-0.1998,-0.2003]}],[{"header":{"parameterUnit":"m.s-1","parameterCategory":2,"la1":30.2991,"la2":30.254,"lo1":-89.0895,"lo2":-89.0444,"dy":0.0017,"dx":0.0017,"nx":28,"ny":28,"refTime":"2024-08-16T21:00:00:Z","depth":"2","parameterNumber":2,"parameterNumberName":"U-component_of_CURRENTS"},"data":[0,0,0,0,0,0,0,0,0,0,0,0,0,0,0,0,0,0,0,0,0,0,0,0,0,0,0,0,0,0,0,0,0,0,0,0,0,0,0,0,0,0,0,0,0,0,0,0,0,0,0,0,0,0,0,0,0,0,0.3019,0.3019,0,0.307,0.307,0.3071,0.3115,0.3115,0.3116,0.3116,0.3172,0.3173,0.3174,0,0,0,0,0,0,0,0,0,0,0,0,0,0.2951,0.2952,0.3019,0.3019,0.302,0.307,0.307,0.3071,0.3115,0.3115,0.3116,0.3116,0.3171,0.3172,0.3174,0,0,0,0,0,0,0,0,0,0,0,0,0,0.2989,0.2952,0.3019,0.3048,0.3051,0.307,0.307,0.3071,0.3114,0.3115,0.3116,0.3117,0.3171,0.3172,0.3174,0.3168,0,0,0.3178,0.3179,0,0,0,0,0,0,0,0,0.2986,0.2991,0.3043,0.3046,0.3049,0.3087,0.3067,0.3104,0.3114,0.309,0.3116,0.3117,0.3143,0.3147,0.3155,0.317,0.3173,0.3178,0.3179,0.318,0.318,0,0,0,0,0,0,0,0.2984,0.2989,0.3039,0.3044,0.3048,0.3056,0.3062,0.3074,0.3112,0.3092,0.3096,0.3101,0.3145,0.3153,0.3156,0.3174,0.3178,0.318,0.3181,0.3181,0.3268,0.3269,0,0,0,0,0,0,0.2978,0.2987,0.3037,0.304,0.3019,0.3056,0.3063,0.3074,0.3112,0.3118,0.3101,0.3103,0.315,0.3154,0.3158,0.324,0.318,0.3181,0.3182,0.3267,0.3268,0.327,0,0,0,0,0,0,0.2976,0.2982,0.3035,0.3014,0.3022,0.3057,0.3068,0.3074,0.3105,0.3118,0.3125,0.3127,0.3151,0.3156,0.3198,0.3239,0.3182,0.3183,0.3265,0.3267,0.3269,0.3347,0,0,0,0,0,0,0.2974,0.2981,0.2994,0.3014,0.3023,0.3058,0.3068,0.3075,0.3106,0.3111,0.3142,0.3147,0.3152,0.3196,0.3199,0.324,0.3185,0.3263,0.3266,0.3268,0.3342,0.3351,0.3359,0,0,0,0,0,0.2971,0.2988,0.2994,0.3001,0.3037,0.3058,0.3064,0.309,0.3107,0.3121,0.3153,0.3147,0.3215,0.3198,0.3202,0.3244,0.3262,0.3265,0.3268,0.3339,0.335,0.3359,0,0,0,0,0,0,0.2964,0.2994,0.3002,0.3027,0.3045,0.3066,0.3088,0.3102,0.3137,0.315,0.3164,0.3172,0.3224,0.3218,0.32,0.3275,0.3238,0.3242,0.329,0.33,0.3308,0.334,0.3186,0,0,0,0,0,0.2967,0.2992,0.3011,0.3033,0.3045,0.3069,0.3085,0.31,0.3129,0.3146,0.318,0.3209,0.3235,0.3256,0.3275,0.3314,0.3359,0.3343,0.3351,0.3358,0.3386,0.3492,0.3513,0.328,0.328,0.328,0,0,0.2973,0.2991,0.3007,0.3034,0.3055,0.3078,0.3082,0.3111,0.3144,0.3145,0.3219,0.3239,0.3251,0.3303,0.3325,0.3307,0.3448,0.3362,0.3368,0.3393,0.3498,0.3521,0.3541,0.3282,0.3282,0.3281,0,0,0.2993,0.3013,0.304,0.3059,0.3088,0.3097,0.3109,0.3148,0.3182,0.3235,0.3253,0.33,0.3343,0.3369,0.3381,0.3442,0.3486,0.3452,0.3526,0.3628,0.3649,0.3668,0.376,0.3786,0.3459,0.3459,0.3459,0,0.2997,0.3034,0.3049,0.3079,0.3107,0.3109,0.3145,0.3169,0.3223,0.3284,0.3268,0.3395,0.3374,0.3469,0.3478,0.3463,0.354,0.3488,0.3643,0.3662,0.3681,0.377,0.3798,0.3463,0.3463,0.3462,0.3462,0,0.3033,0.307,0.309,0.3129,0.3156,0.3185,0.3216,0.3273,0.3311,0.3353,0.3474,0.3479,0.357,0.3554,0.3525,0.3654,0.3674,0.3641,0.3624,0.3709,0.3797,0.3825,0.3469,0.3468,0.3466,0.3465,0,0,0.302,0.3101,0.3112,0.3153,0.319,0.322,0.3291,0.3372,0.346,0.3518,0.3652,0.3673,0.3722,0.3739,0.3735,0.3792,0.3941,0.3779,0.3782,0.3882,0.4202,0.4045,0.4061,0.3965,0.397,0.3974,0.4214,0,0.3044,0.3119,0.3154,0.3229,0.3265,0.3322,0.3397,0.3477,0.3546,0.3672,0.3726,0.383,0.378,0.384,0.39,0.3946,0.4021,0.3881,0.4095,0.4101,0.3961,0.4089,0.3744,0.3915,0.4242,0.4246,0.425,0,0.3055,0.311,0.3192,0.331,0.3339,0.3392,0.3545,0.3608,0.3764,0.3835,0.3972,0.403,0.4159,0.4067,0.4262,0.4198,0.4214,0.4223,0.4233,0.4083,0.3996,0.388,0.3954,0.4297,0.4293,0.429,0.4286,0,0.3064,0.3136,0.3211,0.3244,0.3369,0.3457,0.3531,0.3677,0.3757,0.3954,0.4045,0.4236,0.4307,0.443,0.4457,0.4404,0.4638,0.4563,0.4448,0.4438,0.418,0.4136,0.4691,0.4691,0.469,0.469,0.4689,0,0.3062,0.3151,0.3217,0.3304,0.3396,0.3469,0.3606,0.3737,0.3878,0.3973,0.4133,0.4241,0.4397,0.4535,0.4575,0.4624,0.4761,0.4506,0.4504,0.4192,0.4149,0.4492,0.4466,0.4699,0.4697,0.4695,0.4693,0,0.3017,0.313,0.3217,0.3355,0.3425,0.3465,0.3632,0.3679,0.3868,0.4,0.4076,0.4286,0.4461,0.4604,0.4764,0.4722,0.481,0.4769,0.4386,0.4331,0.452,0.4495,0.472,0.4717,0.4714,0.4712,0.471,0,0.3021,0.3027,0.32,0.3252,0.3319,0.3404,0.3458,0.3662,0.3697,0.4,0.4033,0.4278,0.4359,0.4584,0.4606,0.4718,0.4767,0.4403,0.4193,0.4555,0.4532,0.451,0.449,0.3904,0.3895,0.3888,0.3883,0,0.2927,0.2968,0.303,0.3113,0.32,0.3258,0.3369,0.3401,0.3601,0.3736,0.3889,0.401,0.4215,0.4156,0.4291,0.4289,0.4374,0.426,0.4809,0.3912,0.3794,0.3767,0.3773,0.3822,0.3828,0.3833,0.3836,0.3838,0.2845,0.2792,0.2871,0.2904,0.3021,0.3081,0.3073,0.3132,0.3228,0.337,0.359,0.3681,0.3778,0.3799,0.3753,0.3757,0.4021,0.385,0.3869,0.3895,0.3721,0.36,0.3561,0.3565,0.3569,0.3573,0.3576,0,0.268,0.2672,0.2657,0.2779,0.2775,0.2946,0.2972,0.2887,0.2878,0.3071,0.3175,0.3014,0.3036,0.3194,0.3109,0.3123,0.307,0.2994,0.29,0.2965,0.3021,0.2798,0.2396,0.2392,0.2388,0.2385,0,0,0.2612,0.2566,0.2507,0.2511,0.2591,0.2611,0.2588,0.2467,0.252,0.2495,0.2578,0.2868,0.3076,0.2676,0.2641,0.2511,0.27,0.241,0.3364,0.3316,0.3366,0.3535,0.3267,0,0,0,0,0]},{"header":{"parameterUnit":"m.s-1","parameterCategory":2,"la1":30.2991,"la2":30.254,"lo1":-89.0895,"lo2":-89.0444,"dy":0.0017,"dx":0.0017,"nx":28,"ny":28,"refTime":"2024-08-16T21:00:00:Z","depth":"2","parameterNumber":3,"parameterNumberName":"V-component_of_CURRENTS"},"data":[0,0,0,0,0,0,0,0,0,0,0,0,0,0,0,0,0,0,0,0,0,0,0,0,0,0,0,0,0,0,0,0,0,0,0,0,0,0,0,0,0,0,0,0,0,0,0,0,0,0,0,0,0,0,0,0,0,0,0.0088,0.0087,0,0.0024,0.0023,0.0022,-0.0033,-0.0033,-0.0034,-0.0034,-0.0157,-0.016,-0.0163,0,0,0,0,0,0,0,0,0,0,0,0,0,0.0083,0.0084,0.0088,0.0087,0.0087,0.0024,0.0023,0.0022,-0.0033,-0.0033,-0.0034,-0.0035,-0.0156,-0.016,-0.0163,0,0,0,0,0,0,0,0,0,0,0,0,0,0.0058,0.0084,0.0088,0.0052,0.0049,0.0024,0.0023,0.0021,-0.0033,-0.0033,-0.0034,-0.0035,-0.0155,-0.0159,-0.0164,-0.0174,0,0,-0.0176,-0.0178,0,0,0,0,0,0,0,0,0.0059,0.0058,0.0058,0.0055,0.0051,0.0003,-0.0024,-0.0046,-0.0032,-0.0003,-0.0034,-0.0035,-0.0108,-0.0116,-0.0127,-0.018,-0.0185,-0.0177,-0.0179,-0.0181,-0.0182,0,0,0,0,0,0,0,0.0061,0.006,0.0061,0.0058,0.0053,0.0012,0.0008,-0.0029,-0.0052,-0.0005,-0.0009,-0.0015,-0.0111,-0.0123,-0.013,-0.0187,-0.0177,-0.018,-0.0183,-0.0185,-0.0272,-0.0272,0,0,0,0,0,0,0.0077,0.0062,0.0064,0.006,0.0054,0.0013,0.0009,0.0019,-0.005,-0.0061,-0.0014,-0.0017,-0.0115,-0.0125,-0.0135,-0.0152,-0.0181,-0.0185,-0.0187,-0.0272,-0.0272,-0.0271,0,0,0,0,0,0,0.0077,0.0078,0.0066,0.0059,0.0055,0.0015,0.0026,0.0018,0.0005,-0.0056,-0.0068,-0.0019,-0.0116,-0.0129,-0.0162,-0.0158,-0.0187,-0.0191,-0.0272,-0.0272,-0.0272,-0.0187,0,0,0,0,0,0,0.0077,0.0079,0.0088,0.0061,0.0056,0.0062,0.0026,0.0017,0.0003,-0.0001,-0.0064,-0.0076,-0.0118,-0.0156,-0.0166,-0.0164,-0.0194,-0.0272,-0.0272,-0.0272,-0.019,-0.0184,-0.0178,0,0,0,0,0,0.0078,0.01,0.0089,0.0089,0.0071,0.0063,0.0057,0.0024,0.0004,0.0008,-0.0037,-0.0074,-0.0162,-0.0158,-0.0171,-0.017,-0.0273,-0.0272,-0.0272,-0.0192,-0.0185,-0.0179,0,0,0,0,0,0,0.0102,0.0096,0.0083,0.0102,0.0087,0.0055,0.0053,0.0031,-0.0001,-0.0005,-0.0069,-0.0083,-0.0113,-0.0152,-0.0147,-0.0195,-0.0225,-0.0227,-0.016,-0.0154,-0.0148,-0.0116,-0.0197,0,0,0,0,0,0.0114,0.0127,0.0111,0.0123,0.0121,0.0088,0.0078,0.0063,0.0033,0.0018,-0.0032,-0.0081,-0.0121,-0.0143,-0.0185,-0.0207,-0.0235,-0.0216,-0.021,-0.0205,-0.0188,-0.0223,-0.0218,-0.027,-0.027,-0.027,0,0,0.0123,0.0122,0.0128,0.0128,0.0113,0.0123,0.008,0.0081,0.0083,0.001,-0.0012,-0.0062,-0.0122,-0.0148,-0.0165,-0.018,-0.0206,-0.0205,-0.0199,-0.0185,-0.0222,-0.0216,-0.0212,-0.027,-0.027,-0.027,0,0,0.0155,0.0154,0.0177,0.0173,0.0166,0.0152,0.0157,0.0129,0.011,0.009,0.0035,-0.0004,-0.0071,-0.0107,-0.0135,-0.0121,-0.0174,-0.0146,-0.009,-0.0124,-0.012,-0.0116,-0.0143,-0.0143,-0.0143,-0.0142,-0.0142,0,0.0167,0.0198,0.0179,0.0201,0.0206,0.0171,0.0198,0.0177,0.0138,0.0127,0.0096,0.0009,-0.0046,-0.0071,-0.0073,-0.0106,-0.0135,-0.011,-0.0114,-0.0111,-0.0109,-0.0139,-0.0139,-0.0138,-0.0139,-0.0139,-0.014,0,0.0221,0.0239,0.0253,0.0271,0.0274,0.0294,0.0273,0.0265,0.0235,0.0205,0.0171,0.0099,0.0052,0.0019,-0.0026,-0.004,-0.0068,-0.0101,-0.0125,-0.0098,-0.0132,-0.0134,-0.0132,-0.0134,-0.0135,-0.0136,0,0,0.0265,0.0289,0.0294,0.0317,0.0319,0.0335,0.0339,0.0338,0.0348,0.029,0.0294,0.021,0.017,0.0136,0.0073,0.0035,0.0017,-0.0022,-0.0026,-0.0037,-0.0054,-0.0103,-0.0111,-0.0021,-0.0021,-0.0021,-0.0083,0,0.0313,0.0377,0.037,0.0424,0.0456,0.0433,0.0447,0.0437,0.0406,0.0396,0.0323,0.0298,0.0215,0.0199,0.0149,0.0062,0.0015,0.0037,-0.0089,-0.0092,-0.013,-0.0114,-0.0083,-0.0138,-0.0085,-0.0086,-0.0086,0,0.0375,0.0408,0.0475,0.0516,0.053,0.0553,0.058,0.059,0.0559,0.0535,0.0493,0.0429,0.038,0.0299,0.0174,0.0192,0.0077,-0.0005,-0.001,-0.0083,-0.0145,-0.0159,-0.0144,-0.009,-0.009,-0.0089,-0.0089,0,0.0425,0.0485,0.0547,0.0561,0.0597,0.062,0.0642,0.063,0.0653,0.0628,0.0638,0.0554,0.0522,0.0394,0.0224,0.0199,0.0079,0.0023,-0.0133,-0.0138,-0.0148,-0.0154,-0.0083,-0.0082,-0.0082,-0.0082,-0.0082,0,0.0487,0.053,0.0582,0.0603,0.069,0.0694,0.0765,0.0759,0.0775,0.0838,0.0723,0.0751,0.0539,0.044,0.0278,0.0085,0.0121,-0.0113,-0.0155,-0.012,-0.0122,-0.0113,-0.0116,-0.0084,-0.0084,-0.0084,-0.0083,0,0.0536,0.0557,0.0624,0.0679,0.0707,0.0773,0.0851,0.0905,0.0905,0.0986,0.0991,0.0893,0.0773,0.055,0.0335,0.0153,-0.0022,-0.0115,-0.0059,-0.0094,-0.0233,-0.023,-0.0283,-0.0285,-0.0287,-0.0289,-0.029,0,0.0567,0.0612,0.0687,0.0737,0.0764,0.0862,0.0933,0.0964,0.1038,0.1102,0.116,0.1042,0.0992,0.0643,0.0312,0.0009,-0.004,-0.0195,-0.0252,-0.0216,-0.0252,-0.0247,-0.0242,-0.0231,-0.0232,-0.0232,-0.0233,0,0.0625,0.0649,0.0709,0.0821,0.0899,0.1013,0.1121,0.1214,0.1298,0.1366,0.1466,0.1428,0.1062,0.0744,0.0264,0.0058,-0.014,-0.0221,-0.0181,-0.0192,-0.0175,-0.0207,-0.0203,-0.0238,-0.0238,-0.0237,-0.0237,-0.0237,0.0656,0.0731,0.081,0.0934,0.1019,0.1176,0.1326,0.1459,0.1623,0.1776,0.1703,0.165,0.1204,0.0602,0.0216,-0.0195,-0.019,-0.0339,-0.0334,-0.0329,-0.0318,-0.0306,-0.0392,-0.0392,-0.0392,-0.0393,-0.0393,0,0.0709,0.0797,0.0922,0.1068,0.1208,0.1225,0.1465,0.1627,0.1879,0.1945,0.1998,0.1581,0.1163,0.0693,0.0079,-0.0317,-0.0337,-0.0434,-0.0365,-0.0357,-0.0351,-0.034,-0.0421,-0.0422,-0.0422,-0.0423,0,0,0.0731,0.0862,0.0965,0.1214,0.1325,0.1563,0.1729,0.1921,0.2041,0.2133,0.2082,0.1899,0.1299,0.0843,0.0303,-0.0035,-0.0099,-0.011,-0.0048,0.0106,0.0118,-0.0263,-0.0234,0,0,0,0,0]}],[{"header":{"parameterUnit":"m.s-1","parameterCategory":2,"la1":30.2991,"la2":30.254,"lo1":-89.0895,"lo2":-89.0444,"dy":0.0017,"dx":0.0017,"nx":28,"ny":28,"refTime":"2024-08-16T21:00:00:Z","depth":"4","parameterNumber":2,"parameterNumberName":"U-component_of_CURRENTS"},"data":[0,0,0,0,0,0,0,0,0,0,0,0,0,0,0,0,0,0,0,0,0,0,0,0,0,0,0,0,0,0,0,0,0,0,0,0,0,0,0,0,0,0,0,0,0,0,0,0,0,0,0,0,0,0,0,0,0,0,0.1659,0.1661,0,0.1741,0.1742,0.1743,0.1797,0.1798,0.1799,0.18,0.1858,0.1859,0.186,0,0,0,0,0,0,0,0,0,0,0,0,0,0.1571,0.1571,0.1659,0.1661,0.1662,0.1741,0.1742,0.1743,0.1797,0.1798,0.1799,0.18,0.1858,0.1859,0.186,0,0,0,0,0,0,0,0,0,0,0,0,0,0.1623,0.1572,0.1659,0.1702,0.1707,0.1741,0.1742,0.1743,0.1797,0.1798,0.1799,0.18,0.1858,0.1859,0.186,0.1846,0,0,0.1864,0.1865,0,0,0,0,0,0,0,0,0.1619,0.1625,0.1694,0.1699,0.1705,0.1764,0.1733,0.1778,0.1797,0.1758,0.18,0.1801,0.1826,0.183,0.1838,0.1849,0.1851,0.1864,0.1865,0.1866,0.1866,0,0,0,0,0,0,0,0.1616,0.1622,0.1688,0.1696,0.1702,0.1724,0.1732,0.1741,0.1782,0.1762,0.1767,0.1782,0.1829,0.1837,0.184,0.1852,0.1864,0.1866,0.1866,0.1867,0.1999,0.2001,0,0,0,0,0,0,0.1612,0.1619,0.1685,0.1691,0.1668,0.1725,0.1734,0.174,0.1782,0.1791,0.1781,0.1785,0.1834,0.1838,0.1842,0.1932,0.1866,0.1867,0.1868,0.1996,0.1999,0.2002,0,0,0,0,0,0,0.1609,0.1616,0.1682,0.166,0.1671,0.1726,0.1732,0.1741,0.1789,0.1798,0.1806,0.1824,0.1835,0.184,0.1887,0.1931,0.1868,0.1869,0.1993,0.1997,0.2001,0.2045,0,0,0,0,0,0,0.1606,0.1614,0.1636,0.166,0.1672,0.1721,0.1732,0.1742,0.1796,0.1802,0.1836,0.1841,0.1836,0.1885,0.1888,0.1931,0.187,0.1989,0.1995,0.2,0.204,0.205,0.2059,0,0,0,0,0,0.1602,0.1619,0.1636,0.1646,0.1693,0.1722,0.1731,0.1771,0.1797,0.1818,0.1851,0.1842,0.1921,0.1888,0.1891,0.1936,0.1987,0.1993,0.1999,0.2036,0.2048,0.2058,0,0,0,0,0,0,0.1593,0.1627,0.1646,0.1674,0.1707,0.1734,0.1767,0.1792,0.1835,0.1856,0.1862,0.1868,0.1929,0.1931,0.1895,0.1994,0.1959,0.1966,0.1986,0.1997,0.2006,0.1995,0.1871,0,0,0,0,0,0.16,0.1624,0.1656,0.1683,0.1704,0.1743,0.177,0.1798,0.1831,0.1854,0.188,0.1918,0.195,0.1973,0.1996,0.204,0.2062,0.2079,0.2088,0.2096,0.2093,0.218,0.2196,0.2022,0.2022,0.2022,0,0,0.1601,0.1629,0.1641,0.1685,0.1717,0.1746,0.1762,0.1813,0.1849,0.1851,0.192,0.1947,0.197,0.2023,0.2052,0.2034,0.216,0.2104,0.2109,0.2102,0.2188,0.2205,0.2219,0.2027,0.2026,0.2025,0,0,0.161,0.1645,0.1668,0.1699,0.1758,0.1778,0.1801,0.185,0.189,0.1947,0.1969,0.2022,0.2071,0.2095,0.2112,0.2188,0.2204,0.2215,0.2251,0.2336,0.235,0.2363,0.2417,0.2434,0.2221,0.2222,0.2222,0,0.1618,0.1645,0.1681,0.1715,0.1748,0.1794,0.1828,0.1867,0.1931,0.1973,0.1981,0.2089,0.2102,0.217,0.2197,0.2207,0.2254,0.2199,0.2346,0.2359,0.2372,0.2423,0.2442,0.2224,0.2224,0.2224,0.2223,0,0.1631,0.1672,0.1692,0.1745,0.1785,0.1822,0.1878,0.1935,0.1992,0.2032,0.213,0.2159,0.223,0.2245,0.2238,0.2341,0.2346,0.2343,0.2309,0.2391,0.2441,0.246,0.2228,0.2227,0.2227,0.2226,0,0,0.1595,0.1681,0.1693,0.1724,0.1807,0.183,0.1914,0.1988,0.2049,0.2125,0.2215,0.2269,0.2313,0.2336,0.2355,0.2409,0.2527,0.2417,0.2421,0.2455,0.2714,0.2532,0.2534,0.2565,0.2569,0.2571,0.2714,0,0.1598,0.1648,0.1705,0.1762,0.1788,0.1872,0.1941,0.2025,0.2099,0.2197,0.227,0.2362,0.2343,0.2402,0.2455,0.2518,0.2579,0.2488,0.2643,0.2646,0.2461,0.2549,0.2582,0.2728,0.2732,0.2735,0.2737,0,0.1586,0.1624,0.1673,0.177,0.1794,0.185,0.1969,0.2045,0.2192,0.2259,0.2371,0.2443,0.256,0.2531,0.2681,0.2636,0.2682,0.2709,0.2716,0.2537,0.2497,0.2632,0.277,0.2768,0.2765,0.2763,0.2761,0,0.1493,0.1601,0.1636,0.1665,0.178,0.185,0.1939,0.2076,0.215,0.2334,0.2409,0.2553,0.2649,0.2744,0.2812,0.2784,0.2954,0.2928,0.2801,0.2789,0.2889,0.2873,0.3034,0.3034,0.3033,0.3033,0.3033,0,0.1432,0.1465,0.1611,0.1606,0.169,0.1821,0.192,0.2025,0.2199,0.2289,0.2455,0.2532,0.2712,0.2825,0.2873,0.2888,0.3024,0.2815,0.2819,0.2905,0.289,0.2901,0.2884,0.3038,0.3037,0.3036,0.3035,0,0.1306,0.1388,0.1432,0.1573,0.1631,0.1702,0.1894,0.1969,0.2154,0.2287,0.237,0.2568,0.2723,0.2857,0.3013,0.2941,0.2994,0.2964,0.305,0.3056,0.2757,0.2742,0.2845,0.284,0.2835,0.2832,0.2829,0,0.1239,0.125,0.1375,0.1418,0.149,0.1625,0.1715,0.1919,0.2009,0.2269,0.2324,0.2546,0.2662,0.2736,0.2878,0.2986,0.2945,0.2944,0.2829,0.2747,0.2742,0.2733,0.2723,0.2822,0.2821,0.2819,0.2818,0,0.1115,0.1172,0.1207,0.1286,0.1381,0.1463,0.1625,0.1675,0.1926,0.2103,0.2238,0.2351,0.2505,0.263,0.2735,0.2792,0.2932,0.2898,0.2906,0.2798,0.272,0.2717,0.2713,0.2803,0.2805,0.2807,0.2808,0,0.1038,0.1043,0.1096,0.1169,0.1253,0.1295,0.1395,0.1545,0.1661,0.1986,0.2016,0.2262,0.2464,0.253,0.2623,0.2678,0.2638,0.2538,0.2564,0.2582,0.243,0.2289,0.2253,0,0,0,0,0,0.0962,0.0945,0.0987,0.1024,0.1095,0.1149,0.133,0.1454,0.1703,0.1749,0.1889,0.2039,0.2193,0.2307,0.232,0.2505,0.2637,0.2504,0.253,0.2719,0.2737,0.2582,0,0,0,0,0,0,0.0892,0.0909,0.093,0.0891,0.0902,0.0963,0.1074,0.1251,0.1307,0.1575,0.168,0.188,0.207,0.2161,0.2263,0.2305,0.2274,0.2666,0.2661,0.2709,0.2725,0.2739,0.2586,0,0,0,0,0]},{"header":{"parameterUnit":"m.s-1","parameterCategory":2,"la1":30.2991,"la2":30.254,"lo1":-89.0895,"lo2":-89.0444,"dy":0.0017,"dx":0.0017,"nx":28,"ny":28,"refTime":"2024-08-16T21:00:00:Z","depth":"4","parameterNumber":3,"parameterNumberName":"V-component_of_CURRENTS"},"data":[0,0,0,0,0,0,0,0,0,0,0,0,0,0,0,0,0,0,0,0,0,0,0,0,0,0,0,0,0,0,0,0,0,0,0,0,0,0,0,0,0,0,0,0,0,0,0,0,0,0,0,0,0,0,0,0,0,0,0.0152,0.0151,0,0.0113,0.0113,0.0112,0.0086,0.0086,0.0086,0.0086,0.0029,0.0027,0.0026,0,0,0,0,0,0,0,0,0,0,0,0,0,0.0133,0.0133,0.0152,0.0151,0.0151,0.0113,0.0113,0.0112,0.0086,0.0086,0.0086,0.0086,0.0029,0.0027,0.0026,0,0,0,0,0,0,0,0,0,0,0,0,0,0.0122,0.0134,0.0152,0.0134,0.0132,0.0114,0.0113,0.0112,0.0086,0.0086,0.0086,0.0086,0.003,0.0028,0.0026,0.0018,0,0,0.0019,0.0018,0,0,0,0,0,0,0,0,0.0123,0.0123,0.0137,0.0135,0.0133,0.0105,0.0085,0.008,0.0086,0.0103,0.0086,0.0086,0.0053,0.0049,0.0042,0.0015,0.0013,0.0019,0.0018,0.0017,0.0016,0,0,0,0,0,0,0,0.0124,0.0124,0.0136,0.0136,0.0134,0.0103,0.0102,0.0084,0.0079,0.0102,0.01,0.0096,0.0051,0.0044,0.004,0.0012,0.0019,0.0017,0.0016,0.0015,-0.0034,-0.0034,0,0,0,0,0,0,0.0133,0.0125,0.0137,0.0135,0.0127,0.0104,0.0103,0.0114,0.008,0.0075,0.0096,0.0095,0.0048,0.0043,0.0038,0.0041,0.0017,0.0015,0.0014,-0.0034,-0.0034,-0.0034,0,0,0,0,0,0,0.0133,0.0135,0.0139,0.0128,0.0127,0.0105,0.0117,0.0113,0.011,0.0076,0.007,0.0098,0.0047,0.0041,0.0033,0.0038,0.0014,0.0012,-0.0034,-0.0034,-0.0034,0.0038,0,0,0,0,0,0,0.0133,0.0136,0.0146,0.013,0.0128,0.0139,0.0117,0.0112,0.0107,0.0106,0.0075,0.0069,0.0047,0.0036,0.0031,0.0035,0.0011,-0.0034,-0.0034,-0.0034,0.0035,0.004,0.0044,0,0,0,0,0,0.0133,0.0154,0.0148,0.0149,0.0144,0.014,0.0137,0.0119,0.0108,0.0113,0.0094,0.0071,0.0031,0.0035,0.0029,0.0032,-0.0034,-0.0034,-0.0034,0.0034,0.0039,0.0044,0,0,0,0,0,0,0.0152,0.0153,0.0145,0.0166,0.0157,0.0136,0.0139,0.0125,0.0113,0.0112,0.0078,0.0072,0.0063,0.0036,0.0042,0.0014,-0.0009,-0.0011,0.0044,0.0049,0.0053,0.0063,0.0009,0,0,0,0,0,0.0162,0.0177,0.0167,0.0182,0.0181,0.016,0.0155,0.0146,0.0132,0.0127,0.0103,0.0076,0.0056,0.0046,0.0023,0.0015,-0.0032,0.0008,0.0013,0.0017,0.0018,-0.0045,-0.0047,-0.0035,-0.0035,-0.0035,0,0,0.017,0.0174,0.0181,0.0187,0.0177,0.0187,0.0157,0.016,0.0166,0.0122,0.0123,0.0093,0.0057,0.0048,0.004,0.0029,-0.0012,0.0017,0.0021,0.0019,-0.0046,-0.0047,-0.0048,-0.0035,-0.0035,-0.0035,0,0,0.0198,0.0203,0.0224,0.0223,0.0219,0.021,0.0214,0.0199,0.0191,0.019,0.0155,0.0131,0.0104,0.0076,0.0059,0.0071,0.0013,0.0059,0.0091,0.003,0.0028,0.0027,-0.0035,-0.0043,0.0061,0.0061,0.0062,0,0.0208,0.0237,0.0227,0.0246,0.0252,0.0225,0.0247,0.0237,0.0219,0.0211,0.0201,0.0144,0.0117,0.0093,0.0099,0.0081,0.0035,0.008,0.0036,0.0033,0.003,-0.0032,-0.0042,0.0065,0.0065,0.0064,0.0064,0,0.0252,0.0271,0.0284,0.0303,0.0308,0.0323,0.0311,0.031,0.0296,0.0274,0.0249,0.0206,0.017,0.0155,0.0136,0.01,0.007,0.0051,0.0028,0.0034,-0.0033,-0.0044,0.007,0.0069,0.0068,0.0067,0,0,0.0282,0.0311,0.0317,0.0336,0.0343,0.0356,0.0366,0.0363,0.0364,0.0332,0.0321,0.0279,0.024,0.0217,0.0176,0.0127,0.0069,0.0088,0.0083,0.0035,-0.0071,-0.0064,-0.0076,0.0042,0.0041,0.0039,-0.0108,0,0.0318,0.0376,0.0375,0.0421,0.0447,0.0432,0.0448,0.0439,0.0413,0.0393,0.0333,0.0309,0.0268,0.0253,0.0195,0.0098,0.0043,0.0111,-0.0077,-0.0083,-0.007,-0.0087,0.0035,-0.0117,-0.012,-0.0122,-0.0123,0,0.0362,0.0394,0.0457,0.0489,0.05,0.0524,0.0539,0.0549,0.0506,0.0481,0.043,0.0373,0.03,0.0268,0.0098,0.0142,0.0046,-0.0033,-0.0041,-0.0066,-0.0096,-0.0127,-0.0144,-0.0143,-0.0141,-0.014,-0.0138,0,0.0402,0.045,0.0509,0.0523,0.0555,0.0579,0.0597,0.0577,0.0595,0.0535,0.0527,0.0413,0.0368,0.0227,0.0067,0.0078,-0.0129,-0.0138,-0.0226,-0.0228,-0.0221,-0.0218,-0.0257,-0.0257,-0.0257,-0.0256,-0.0256,0,0.0444,0.0486,0.0538,0.0569,0.0641,0.0639,0.0693,0.0684,0.0673,0.0691,0.0583,0.0555,0.0357,0.0218,0.0068,-0.0118,-0.0136,-0.0228,-0.0266,-0.0188,-0.0179,-0.023,-0.0224,-0.0262,-0.0261,-0.026,-0.0259,0,0.048,0.0511,0.0582,0.0637,0.0666,0.0722,0.0787,0.0815,0.079,0.0807,0.0797,0.0653,0.0467,0.0257,0.0011,-0.0104,-0.029,-0.035,-0.0258,-0.0288,-0.035,-0.034,-0.0464,-0.0465,-0.0466,-0.0467,-0.0468,0,0.0503,0.0545,0.0651,0.0701,0.0734,0.0814,0.0871,0.0885,0.0911,0.0868,0.0876,0.0707,0.0588,0.0238,0.001,-0.0297,-0.0326,-0.0428,-0.038,-0.0347,-0.0373,-0.0361,-0.0349,-0.0469,-0.0469,-0.0469,-0.047,0,0.0537,0.0587,0.0652,0.0767,0.0846,0.0938,0.101,0.1042,0.105,0.103,0.0939,0.0754,0.0536,0.0251,0.0005,-0.0208,-0.0367,-0.0437,-0.0436,-0.0392,-0.0355,-0.0376,-0.0364,-0.0472,-0.0472,-0.0472,-0.0472,0,0.0572,0.0627,0.0722,0.0822,0.0923,0.1017,0.1061,0.1085,0.1114,0.1061,0.1023,0.0783,0.0634,0.0296,0.0071,-0.0146,-0.0186,-0.024,-0.025,-0.025,-0.0139,-0.0057,-0.0121,0,0,0,0,0,0.0599,0.0661,0.0758,0.0869,0.0969,0.1037,0.1129,0.1155,0.1166,0.1122,0.1077,0.0876,0.0531,0.0364,0.0152,0.0055,-0.0228,-0.02,-0.0294,-0.0489,-0.0485,-0.039,0,0,0,0,0,0,0.0614,0.071,0.0762,0.0888,0.0965,0.1086,0.1154,0.1171,0.1138,0.1107,0.092,0.0828,0.0483,0.065,0.0145,0.0077,-0.0009,-0.0367,-0.0371,-0.0491,-0.0487,-0.0485,-0.0386,0,0,0,0,0]}]]